Weather in Paygarma

Russia / Republic of Mordovia     54°04′58″N   44°50′20″E
temp.,
°C
wind,
m/s
gust,
m/s
humid.,
%
clouds,
%
prec.,
mm/h
press.,
hPa
HPBL,
m
28 february, sun
sun2800:00−17nnw499695 0.0 1011209
03:00−18nw489783 0.0 1012140
06:00−19nw369834 0.0 1013104
09:00−18nnw469540 0.0 1014241
12:00−14nnw469069 0.0 1014420
15:00−12nnw369084 0.0 1015522
18:00−14nnw2396100 0.1 101629
21:00−17nnw239786 0.1 101920
1 march, mon
mon100:00−18nnw23972 0.0 102120
03:00−19nw23971 0.0 102220
06:00−19nw23970 0.0 102321
09:00−16nw23950 0.0 1025109
12:00−11w239143 0.0 1024262
15:00−10wsw469472 0.0 1023309
18:00−12wsw489786 0.0 1021130
21:00−9wsw5119692 0.1 1020319
2 march, tue
tue200:00−5sw71294100 0.1 1016431
03:00−3wsw81595100 0.9 1012583
06:00−2wsw81696100 1.5 1007693
09:000wsw81397100 3.0 1004818
12:000wnw610100100 1.6 1002646
15:000nw61190100 2.1 1003810
18:00−2nw5129097 0.3 1003408
21:00−3wnw5119296 0.3 1005363
3 march, wed
wed300:00−3nw61195100 0.3 1005532
03:00−4nw5109497 0.4 1005518
06:00−5wnw6119599 0.1 1006446
09:00−5nw6119293 0.3 1007618
12:00−4nw71091100 0.2 1009760
15:00−4nw71192100 0.4 1010875
18:00−6nw71291100 0.3 1012724
21:00−7nw51193100 0.4 1015503
4 march, thu
thu400:00−11wnw479648 0.0 1016120
03:00−12w459655 0.0 101689
06:00−10wsw499660 0.1 1016197
09:00−7wsw6129579 0.1 1015360
12:00−3wsw8149097 0.0 1012647
15:00−1wsw9158698 0.0 1010779
18:00−2wsw81688100 0.0 1008659
21:00−3wsw9188888 0.0 1007649